[[{"header":{"parameterUnit":"m.s-1","parameterCategory":1,"la1":30.2991,"la2":30.254,"lo1":-89.0895,"lo2":-89.0444,"dy":0.0017,"dx":0.0017,"nx":28,"ny":28,"refTime":"2025-05-21T03:00:00:Z","depth":0,"parameterNumber":2,"parameterNumberName":"U-component_of_WINDS"},"data":[0,0,0,0,0,0,0,0,0,0,0,0,0,0,0,0,0,0,0,0,0,0,0,0,0,0,0,0,0,0,0,0,0,0,0,0,0,0,0,0,0,0,0,0,0,0,0,0,0,0,0,0,0,0,0,0,0,0,1.1774,1.1774,0,1.1801,1.1801,1.1801,1.1771,1.177,1.1768,1.1767,1.1798,1.18,1.1802,0,0,0,0,0,0,0,0,0,0,0,0,0,1.1698,1.1699,1.1774,1.1774,1.1774,1.1801,1.1801,1.1801,1.1771,1.1769,1.1768,1.1767,1.1797,1.18,1.1802,0,0,0,0,0,0,0,0,0,0,0,0,0,1.1729,1.17,1.1774,1.1762,1.1761,1.1801,1.1801,1.1802,1.1771,1.1769,1.1768,1.1766,1.1797,1.1799,1.1802,1.1855,0,0,1.1811,1.1812,0,0,0,0,0,0,0,0,1.1727,1.1731,1.1764,1.1763,1.1762,1.178,1.1785,1.1819,1.1772,1.1768,1.1767,1.1765,1.1794,1.1797,1.1806,1.1856,1.1857,1.1811,1.1813,1.1814,1.1815,0,0,0,0,0,0,0,1.1725,1.173,1.1784,1.1764,1.1763,1.1757,1.1759,1.1792,1.179,1.1768,1.1766,1.1769,1.1793,1.1803,1.1806,1.1858,1.1811,1.1814,1.1815,1.1816,1.1952,1.1954,0,0,0,0,0,0,1.1724,1.1728,1.1784,1.1785,1.174,1.1759,1.1762,1.1776,1.179,1.179,1.1771,1.1768,1.1799,1.1803,1.1807,1.1869,1.1814,1.1817,1.1818,1.195,1.1953,1.1955,0,0,0,0,0,0,1.1722,1.1729,1.1783,1.1756,1.1763,1.1762,1.1779,1.1778,1.1788,1.1792,1.1792,1.1781,1.1798,1.1803,1.1843,1.187,1.1818,1.1821,1.1948,1.1951,1.1954,1.1994,0,0,0,0,0,0,1.172,1.1728,1.1748,1.1757,1.1764,1.1817,1.1781,1.178,1.1792,1.1789,1.1801,1.1802,1.1797,1.1839,1.1846,1.1873,1.1823,1.1946,1.1949,1.1953,1.199,1.1997,1.2004,0,0,0,0,0,1.1717,1.1759,1.1749,1.1756,1.1788,1.1819,1.1823,1.1815,1.1795,1.1815,1.1817,1.1801,1.1866,1.1843,1.185,1.1879,1.1944,1.1948,1.1952,1.1987,1.1996,1.2004,0,0,0,0,0,0,1.1754,1.176,1.1749,1.1794,1.1806,1.1813,1.1838,1.1826,1.1844,1.184,1.1831,1.1834,1.1876,1.1881,1.1856,1.193,1.1901,1.1907,1.1925,1.1934,1.1941,1.1938,1.1825,0,0,0,0,0,1.1767,1.1791,1.1795,1.1835,1.1841,1.1839,1.1852,1.1845,1.1857,1.1862,1.1867,1.1881,1.1903,1.1919,1.194,1.199,1.1993,1.2014,1.2021,1.2026,1.2032,1.2058,1.2067,1.1969,1.1969,1.1969,0,0,1.1795,1.1801,1.1817,1.1842,1.185,1.1875,1.1843,1.1871,1.189,1.1867,1.1904,1.1908,1.1922,1.1967,1.1987,1.1973,1.206,1.2032,1.2036,1.2039,1.2064,1.2073,1.2081,1.1972,1.1971,1.1971,0,0,1.1859,1.1866,1.1899,1.1908,1.192,1.1918,1.1926,1.1935,1.1937,1.1974,1.1957,1.198,1.202,1.203,1.2041,1.2107,1.2094,1.2115,1.2152,1.2177,1.2185,1.2192,1.2216,1.2224,1.212,1.212,1.212,0,1.1892,1.1928,1.1918,1.1947,1.1959,1.1938,1.1972,1.1981,1.2,1.2009,1.1993,1.2042,1.205,1.2097,1.2113,1.2122,1.2131,1.2113,1.2185,1.2192,1.2198,1.222,1.2229,1.2123,1.2122,1.2122,1.2122,0,1.1968,1.1994,1.202,1.2037,1.2052,1.2083,1.2079,1.2095,1.2086,1.2086,1.2124,1.2133,1.2156,1.2166,1.2159,1.2212,1.2203,1.2186,1.2157,1.221,1.2231,1.2239,1.2126,1.2125,1.2125,1.2124,0,0,1.2056,1.2067,1.2077,1.2084,1.2096,1.2116,1.2147,1.2168,1.2182,1.2196,1.2221,1.2255,1.2239,1.2251,1.2245,1.2268,1.2319,1.2248,1.2248,1.226,1.2378,1.239,1.24,1.231,1.2312,1.2313,1.2377,0,1.2119,1.2171,1.2163,1.2213,1.2236,1.2217,1.2243,1.2254,1.2255,1.2275,1.2276,1.23,1.2277,1.2284,1.2306,1.2308,1.2343,1.2304,1.2334,1.2336,1.2331,1.2411,1.2425,1.2484,1.2385,1.2386,1.2387,0,1.22,1.2216,1.2268,1.2276,1.2285,1.2309,1.2327,1.2347,1.2359,1.2357,1.2371,1.236,1.2391,1.2361,1.2404,1.2378,1.239,1.2393,1.2395,1.2397,1.2364,1.2416,1.2503,1.2512,1.24,1.2399,1.2398,0,1.2258,1.2293,1.2328,1.2335,1.2345,1.2362,1.2368,1.2377,1.239,1.2406,1.2415,1.2435,1.2446,1.2462,1.2457,1.2436,1.2501,1.2471,1.2502,1.2502,1.2516,1.2515,1.2606,1.2524,1.2524,1.2524,1.2524,0,1.233,1.2362,1.2354,1.2376,1.2412,1.2403,1.2439,1.2442,1.245,1.2473,1.2458,1.2479,1.2472,1.2493,1.249,1.2525,1.2531,1.2531,1.253,1.2532,1.2532,1.254,1.2536,1.2526,1.2526,1.2525,1.2525,0,1.2401,1.2397,1.2434,1.244,1.2442,1.2468,1.2474,1.2495,1.2494,1.2522,1.2529,1.2528,1.2552,1.2549,1.2577,1.2574,1.2618,1.2612,1.2614,1.2613,1.2643,1.264,1.2742,1.2755,1.2665,1.2666,1.2666,0,1.2446,1.2471,1.2479,1.2492,1.2498,1.252,1.2533,1.2525,1.2539,1.2553,1.2573,1.2595,1.2613,1.2652,1.2655,1.2676,1.267,1.2704,1.2673,1.2675,1.267,1.2668,1.2671,1.271,1.2711,1.2712,1.2713,0,1.2528,1.2524,1.2543,1.256,1.2576,1.259,1.2602,1.2614,1.2607,1.2623,1.2647,1.2661,1.2688,1.2711,1.273,1.2736,1.2724,1.2723,1.2731,1.2733,1.2733,1.2733,1.2631,1.272,1.272,1.2719,1.2719,1.2718,1.2587,1.2608,1.2617,1.2638,1.2646,1.2657,1.2677,1.2678,1.2698,1.2718,1.2712,1.274,1.275,1.2775,1.2783,1.2804,1.2792,1.2804,1.2807,1.281,1.2813,1.273,1.2808,1.2808,1.2808,1.2808,1.2807,0,1.2668,1.2672,1.2691,1.2708,1.2725,1.271,1.2723,1.2738,1.2762,1.2773,1.279,1.2817,1.2839,1.2843,1.2863,1.288,1.2875,1.2886,1.2884,1.2886,1.2823,1.2814,1.289,1.289,1.289,1.289,1.289,1.289,1.2711,1.2745,1.2743,1.278,1.2785,1.281,1.2819,1.283,1.2838,1.2869,1.2886,1.2888,1.2896,1.2917,1.2937,1.2937,1.2946,1.2959,1.2957,1.2899,1.289,1.2883,1.2874,1.2961,1.2961,1.3018,1.3019,1.3019]},{"header":{"parameterUnit":"m.s-1","parameterCategory":1,"la1":30.2991,"la2":30.254,"lo1":-89.0895,"lo2":-89.0444,"dy":0.0017,"dx":0.0017,"nx":28,"ny":28,"refTime":"2025-05-21T03:00:00:Z","depth":0,"parameterNumber":3,"parameterNumberName":"V-component_of_WINDS"},"data":[0,0,0,0,0,0,0,0,0,0,0,0,0,0,0,0,0,0,0,0,0,0,0,0,0,0,0,0,0,0,0,0,0,0,0,0,0,0,0,0,0,0,0,0,0,0,0,0,0,0,0,0,0,0,0,0,0,0,0.3639,0.364,0,0.3771,0.3773,0.3774,0.3848,0.3848,0.3848,0.3848,0.3987,0.3991,0.3994,0,0,0,0,0,0,0,0,0,0,0,0,0,0.345,0.3453,0.3638,0.364,0.3642,0.3771,0.3773,0.3774,0.3848,0.3848,0.3848,0.3848,0.3986,0.399,0.3994,0,0,0,0,0,0,0,0,0,0,0,0,0,0.3552,0.3454,0.3638,0.3694,0.37,0.377,0.3773,0.3775,0.3848,0.3848,0.3848,0.3849,0.3985,0.399,0.3995,0.4021,0,0,0.4011,0.4013,0,0,0,0,0,0,0,0,0.3547,0.3559,0.3684,0.369,0.3697,0.3793,0.3757,0.3858,0.3848,0.3792,0.3848,0.3849,0.3923,0.3933,0.3957,0.4028,0.4034,0.4011,0.4015,0.4017,0.4018,0,0,0,0,0,0,0,0.3539,0.3554,0.3691,0.3686,0.3694,0.3713,0.3727,0.3777,0.3854,0.3797,0.3802,0.3817,0.3926,0.3952,0.3961,0.4036,0.4011,0.4016,0.4019,0.4021,0.4133,0.4133,0,0,0,0,0,0,0.3523,0.3548,0.3687,0.3695,0.3621,0.3716,0.3732,0.3762,0.3854,0.3868,0.3816,0.382,0.3943,0.3955,0.3966,0.4003,0.4017,0.4022,0.4025,0.4133,0.4133,0.4133,0,0,0,0,0,0,0.3519,0.3535,0.3682,0.3623,0.3643,0.3719,0.3751,0.3765,0.379,0.3868,0.3883,0.3828,0.3944,0.3959,0.4006,0.4008,0.4024,0.4029,0.4133,0.4133,0.4133,0.4075,0,0,0,0,0,0,0.3513,0.3533,0.3543,0.3623,0.3646,0.3719,0.3752,0.3767,0.3799,0.3804,0.3883,0.3897,0.3945,0.3998,0.4012,0.4016,0.4033,0.4134,0.4133,0.4133,0.4077,0.4073,0.4069,0,0,0,0,0,0.3506,0.3523,0.3544,0.356,0.366,0.3719,0.3732,0.3787,0.3799,0.381,0.386,0.3894,0.4005,0.4002,0.4018,0.4024,0.4134,0.4133,0.4133,0.4079,0.4074,0.4069,0,0,0,0,0,0,0.3444,0.3534,0.3558,0.3601,0.3651,0.3731,0.3748,0.3779,0.3828,0.3832,0.3898,0.3915,0.3956,0.3995,0.399,0.4053,0.4073,0.4076,0.4027,0.4023,0.4019,0.4009,0.4037,0,0,0,0,0,0.3435,0.3474,0.3551,0.3581,0.3605,0.3671,0.3699,0.3736,0.3792,0.3814,0.3867,0.392,0.3967,0.3997,0.4044,0.4083,0.4101,0.4094,0.409,0.4086,0.4089,0.4111,0.4109,0.4131,0.4131,0.4131,0,0,0.3417,0.3471,0.3492,0.357,0.3614,0.3653,0.3689,0.373,0.376,0.382,0.3868,0.3909,0.3973,0.4015,0.4037,0.4049,0.4086,0.4086,0.4082,0.4087,0.411,0.4108,0.4106,0.4131,0.4131,0.4131,0,0,0.3405,0.345,0.348,0.3522,0.3586,0.363,0.3637,0.3711,0.374,0.3789,0.3834,0.3871,0.3951,0.3994,0.4026,0.4027,0.4061,0.4041,0.4021,0.4041,0.404,0.4038,0.4039,0.4038,0.4042,0.4042,0.4042,0,0.3376,0.3436,0.3491,0.3529,0.3562,0.3616,0.3646,0.3685,0.3762,0.3783,0.3795,0.3895,0.3942,0.3995,0.3994,0.4019,0.4029,0.4033,0.4035,0.4035,0.4034,0.4036,0.4036,0.4039,0.404,0.404,0.404,0,0.3397,0.3438,0.3454,0.3525,0.356,0.3594,0.3654,0.3682,0.3715,0.3757,0.3806,0.3863,0.3922,0.3937,0.3971,0.3995,0.4,0.4023,0.4044,0.4028,0.4031,0.4032,0.4035,0.4036,0.4037,0.4038,0,0,0.3352,0.3451,0.3456,0.3489,0.3563,0.3596,0.3631,0.3688,0.3711,0.3762,0.3794,0.3858,0.3878,0.3915,0.3953,0.3972,0.3968,0.3992,0.3995,0.3986,0.3998,0.3981,0.3981,0.399,0.399,0.3991,0.3993,0,0.3351,0.3418,0.3467,0.3514,0.3553,0.3603,0.3634,0.3683,0.3723,0.3761,0.3806,0.385,0.3874,0.3896,0.3916,0.3964,0.3972,0.3965,0.4021,0.4022,0.4005,0.3982,0.3965,0.3964,0.3994,0.3994,0.3994,0,0.336,0.3407,0.3458,0.3526,0.3544,0.3571,0.3626,0.3662,0.3718,0.3746,0.3785,0.3824,0.3864,0.3879,0.3935,0.3929,0.3955,0.3982,0.3983,0.3992,0.4008,0.399,0.3966,0.3965,0.3996,0.3996,0.3996,0,0.3323,0.3399,0.3439,0.3465,0.3545,0.3563,0.3597,0.3653,0.3684,0.3732,0.3752,0.3804,0.3833,0.3873,0.3925,0.3932,0.3975,0.3996,0.4,0.3998,0.4008,0.4007,0.3987,0.4022,0.4022,0.4022,0.4022,0,0.3318,0.3347,0.3423,0.3447,0.3481,0.3537,0.3569,0.3608,0.3657,0.369,0.3737,0.3767,0.3833,0.3872,0.3912,0.3952,0.3965,0.3988,0.3999,0.3985,0.3982,0.4004,0.4006,0.4023,0.4022,0.4022,0.4022,0,0.3283,0.3334,0.3381,0.3452,0.3471,0.3493,0.3554,0.358,0.3621,0.3662,0.3675,0.374,0.3787,0.3842,0.3908,0.3935,0.3972,0.3987,0.3953,0.3959,0.396,0.3959,0.3955,0.3957,0.3989,0.3988,0.3988,0,0.3277,0.33,0.3373,0.3398,0.343,0.347,0.3501,0.3556,0.3586,0.3649,0.3667,0.3718,0.3761,0.3834,0.3887,0.3937,0.3955,0.3949,0.3963,0.3947,0.3955,0.3953,0.3956,0.3946,0.3946,0.3945,0.3945,0,0.326,0.3284,0.3326,0.3376,0.341,0.3453,0.3497,0.3515,0.3579,0.361,0.3658,0.3691,0.3757,0.3806,0.3863,0.3899,0.3932,0.394,0.3943,0.393,0.3909,0.392,0.3944,0.394,0.3941,0.3941,0.3941,0.3941,0.324,0.3263,0.3317,0.3362,0.34,0.344,0.3467,0.351,0.3551,0.3608,0.3638,0.3685,0.3739,0.3817,0.3852,0.389,0.3902,0.3907,0.3908,0.3909,0.3905,0.3901,0.39,0.39,0.3901,0.3901,0.3901,0,0.3227,0.3263,0.3303,0.3363,0.3398,0.3424,0.3474,0.3502,0.3542,0.3589,0.3629,0.3684,0.3731,0.3787,0.3838,0.3857,0.3874,0.3869,0.3869,0.3876,0.3891,0.3883,0.3854,0.3854,0.3854,0.3854,0.3854,0.3854,0.3224,0.3263,0.3293,0.3352,0.3389,0.3434,0.346,0.3497,0.3534,0.3592,0.3631,0.3667,0.3717,0.3771,0.3816,0.3831,0.3848,0.3838,0.3858,0.3871,0.3875,0.3879,0.3872,0.3841,0.3841,0.384,0.384,0.384]}]]